Regional Weather Roundup
Issued by NWS

Home | Current Version | Previous Version | Text Only | Print | Product List | Glossary On
Versions: 1 2 3 4 5 6 7 8 9 10 11 12 13 14 15 16 17 18 19 20 21 22 23 24 25 26 27 28 29 30 31 32 33 34 35 36 37 38 39 40 41 42 43 44 45 46 47 48 49 50
000
ASUS43 KDMX 251708
RWRIA

WEATHER ROUNDUP FOR IOWA
NATIONAL WEATHER SERVICE DES MOINES IA
1200 PM CDT THU AUG 25 2016

NOTE: "FAIR" INDICATES FEW OR NO CLOUDS BELOW 12,000 FEET WITH NO
SIGNIFICANT WEATHER AND/OR OBSTRUCTIONS TO VISIBILITY.

* - THESE STATIONS ARE NOT NWS STATIONS...THUS NOT UNDER NWS
QUALITY CONTROL.  THEY ALSO DO NOT REPORT WEATHER SUCH
AS PRECIPITATION OR FOG.

IAZ001>003-012>014-020>022-031>034-043>046-251800-
   NORTHWEST IOWA

CITY           SKY/WX    TMP DP  RH WIND       PRES   REMARKS
CARROLL *      CLOUDY    70  61  73 CALM      30.12F
CHEROKEE *     CLOUDY    68  59  74 NW6       30.15S
DENISON *      CLOUDY    68  61  77 CALM      30.12S
LE MARS *      CLOUDY    68  57  68 NW12      30.17S
ORANGE CITY *  PTSUNNY   66  57  72 N9        30.17S
SHELDON *      PTSUNNY   66  57  72 NW7       30.15S
SIOUX CITY     PTSUNNY   68  59  73 NW8       30.16S
SPENCER        CLOUDY    69  55  60 NW3       30.15S
STORM LAKE *   CLOUDY    68  61  77 NW7       30.15S
$$

IAZ055>058-069>071-079>083-090>094-251800-
   SOUTHWEST IOWA

CITY           SKY/WX    TMP DP  RH WIND       PRES   REMARKS
ATLANTIC *     CLOUDY    66  63  88 NE6       30.12F
AUDUBON *      CLOUDY    70  63  78 CALM      30.14F
CLARINDA *       N/A     68  64  88 MISG      30.12S
COUNCIL BLFS * CLOUDY    68  63  83 N5        30.14R
CRESTON *      MOSUNNY   66  63  88 NE7       30.13F
HARLAN  *      CLOUDY    68  64  88 N3        30.16F
LAMONI         CLOUDY    66  64  93 E6        30.13R
RED OAK *      CLOUDY    66  63  88 NE8       30.10F
SHENANDOAH *   CLOUDY    66 -40   1 N6        30.11S
$$

IAZ047>049-059>061-072>074-084-251800-
   CENTRAL IOWA

CITY           SKY/WX    TMP DP  RH WIND       PRES   REMARKS
AMES           CLOUDY    71  62  73 CALM      30.12S
ANKENY *         N/A    N/A N/A N/A MISG        N/A
BOONE *        CLOUDY    70  63  78 CALM      30.12R
CHARITON *     LGT RAIN  68  66  94 MISG      30.13F
DES MOINES     CLOUDY    71  64  78 CALM      30.11F
GRINNELL*      CLOUDY    71  60  67 CALM      30.14R
KNOXVILLE *    LGT RAIN  68  64  88 CALM      30.13R
MARSHALLTOWN   CLOUDY    72  63  73 CALM      30.11S
NEWTON *       PTSUNNY   70  66  88 CALM      30.12S
PERRY *          N/A     68  64  86 CALM      30.13F
$$

IAZ004>006-015-016-023>025-035-036-251800-
   NORTH CENTRAL IOWA

CITY           SKY/WX    TMP DP  RH WIND       PRES   REMARKS
ALGONA *       CLOUDY    70  59  68 NW6       30.13F
ESTHERVILLE    CLOUDY    67  58  72 W3        30.14S
FORT DODGE *   CLOUDY    72  63  73 W5        30.13F
MASON CITY     CLOUDY    73  59  61 W8        30.13S
FOREST CITY *    N/A    N/A N/A N/A MISG        N/A
WEBSTER CITY * CLOUDY    70  63  78 CALM      30.10F
IOWA FALLS *     N/A     72  61  68 CALM      30.13S
$$

IAZ007>011-017>019-026>030-037>042-050>054-066-251800-
   NORTHEAST IOWA

CITY           SKY/WX    TMP DP  RH WIND       PRES   REMARKS
CEDAR RAPIDS   PTSUNNY   75  63  66 NW5       30.10R
CHARLES CITY * CLOUDY    73  63  68 W5        30.12R
CLINTON *      CLOUDY    76  65  68 MISG        N/A
DECORAH *      MOSUNNY   73  61  64 VRB5      30.09S
DUBUQUE        PTSUNNY   76  60  57 VRB3      30.10R
MONTICELLO *   CLOUDY    77  64  65 NW6       30.09S
OELWEIN *      CLOUDY    73  59  60 CALM      30.11S
WATERLOO       CLOUDY    73  59  61 NW5       30.09S
$$

IAZ064-065-067-068-078-251800-
   EAST CENTRAL IOWA

CITY           SKY/WX    TMP DP  RH WIND       PRES   REMARKS
DAVENPORT      CLOUDY    76  65  68 CALM      30.09R
IOWA CITY      CLOUDY    74  62  66 SW3       30.12R
MT. PLEASANT * RAIN      74  69  85 SW7       30.14R
MUSCATINE *    MOSUNNY   75  64  69 S5        30.10R
QUAD CITIES    MOSUNNY   77  66  68 CALM      30.07S
$$

IAZ062-063-075>077-085>089-095>099-251800-
   SOUTHEAST IOWA

CITY           SKY/WX    TMP DP  RH WIND       PRES   REMARKS
BURLINGTON     CLOUDY    76  70  82 W3        30.10R
FAIRFIELD *    MOSUNNY   70  66  88 SW5       30.15R
FORT MADISON * LGT RAIN  75  70  83 NW6       30.11S
KEOKUK *       CLOUDY    75  73  94 NW9       30.10S
OSKALOOSA *    LGT RAIN  71  64  80 S5        30.14R
OTTUMWA        LGT RAIN  69  65  86 S5        30.13R
WASHINGTON *   CLOUDY    73  66  78 SW3       30.13R
$$

ABBREVIATIONS USED IN REMARKS
   TC - TEMPERATURES IN CELSIUS
  WCI - WIND CHILL INDEX
   HX - HEAT INDEX
  VSB - VISIBILITY
$$





USA.gov is the U.S. government's official web portal to all federal, state and local government web resources and services.